Probability
0 0 0 0 0 0 0 0 0 0 0 0 0 0 0 0 0 0 0 0 0 0 0 0 0 0 0 0 0 0 0 0 0 0 0 0 0 0 0 0 0 0 0
0 0 0 0 0 0 0 0 0 0 0 0 0 0 0 0 0 0 0 0 0 0 0 0 0 0 0 0 0 0 0 0 0 0 0 0 0 0 0 0 0 0 0
0 0 0 0 0 0 0 0 0 0 0 0 0 0 0 0 0 0 0 0 0 0 0 0 0 0 0 0 0 0 0 0 0 0 0 0 0 0 0 0 0 0 0
0 0 0 0 0 0 0 0 0 0 0 0 0 0 0 0 0 0 0 0 0 0 0 0 0 0 0 0 0 0 0 0 0 0 0 0 0 0 0 0 0 0 0
0 0 0 0 0 0 0 0 0 0 0 0 0 0 0 0 0 0 0 0 0 0 0 0 0 0 0 0 0 0 0 0 0 0 0 0 0 0 0 0 0 0 0
0 0 0 0 0 0 0 0 0 0 0 0 0 0 0 0 0 0 0 0 0 0 0 0 0 0 0 0 0 0 0 0 0 0 0 0 0 0 0 0 0 0 0
0 0 0 0 0 0 0 0 0 0 0 0 0 0 0 0 0 0 0 0 0 0 0 0 0 0 0 0 0 0 0 0 0 0 0 0 0 0 0 0 0 0 0
0 0 0 0 0 0 0 0 0 0 0 0 0 0 0 0 0 0 0 0 0 0 0 0 0 0 0 0 0 0 0 0 0 0 0 0 0 0 0 0 0 0 0
0 0 0 0 0 0 0 0 0 0 0 0 0 0 0 0 0 0 0 0 0 0 0 0 0 0 0 0 0 0 0 0 0 0 0 0 0 0 0 0 0 0 0
0 0 0 0 0 0 0 0 0 0 0 0 0 0 0 0 0 0 0 0 0 0 0 0 0 0 0 0 0 0 0 0 0 0 0 0 0 0 0 0 0 0 0
0 0 0 0 0 0 0 0 0 0 0 0 0 0 0 0 0 0 0 0 0 0 0 0 0 0 0 0 0 0 0 0 0 0 0 0 0 0 0 0 0 0 0
0 0 0 0 0 0 0 0 0 0 0 0 0 0 0 0 0 0 0 0 0 0 0 0 0 0 0 0 0 0 0 0 0 0 0 0 0 0 0 0 0 0 0
0 0 0 0 0 0 0 0 0 0 0 0 0 0 0 0 0 0 0 0 0 0 0 0 0 0 0 0 0 0 0 0 0 0 0 0 0 0 0 0 0 0 0
0 0 0 0 0 0 0 0 0 0 0 0 0 0 0 0 0 0 0 0 0 0 0 0 0 0 0 0 0 0 0 0 0 0 0 0 0 0 0 0 0 0 0
0 0 0 0 0 0 0 0 0 0 0 0 0 0 0 0 0 0 0 0 0 0 0 0 0 0 0 0 0 0 0 0 0 0 0 0 0 0 0 0 0 0 0
0 0 0 0 0 0 0 0 0 0 0 0 0 0 0 0 0 0 0 0 0 0 0 0 0 0 0 0 0 0 0 0 0 0 0 0 0 0 0 0 0 0 0
0 0 0 0 0 0 0 0 0 0 0 0 0 0 0 0 0 0 0 0 0 0 0 0 0 0 0 0 0 0 0 0 0 0 0 0 0 0 0 0 0 0 0
0 0 0 0 0 0 0 0 0 0 0 0 0 0 0 0 0 0 0 0 0 0 0 0 0 0 0 0 0 0 0 0 0 0 0 0 0 0 0 0 0 0 0
0 0 0 0 0 0 0 0 0 0 0 0 0 0 0 0 0 0 0 0 0 0 0 0 0 0 0 0 0 0 0 0 0 0 0 0 0 0 0 0 0 0 0
0 0 0 0 0 0 0 0 0 0 0 0 0 0 0 0 0 0 0 0 0 0 0 0 0 0 0 0 0 0 0 0 0 0 0 0 0 0 0 0 0 0 0
0 0 0 0 0 0 0 0 0 0 0 0 0 0 0 0 0 0 0 0 0 0 0 0 0 0 0 0 0 0 0 0 0 0 0 0 0 0 0 0 0 0 0
0 0 0 0 0 0 0 0 0 0 0 0 0 0 0 0 0 0 0 0 0 0 0 0 0 0 0 0 0 0 0 0 0 0 0 0 0 0 0 0 0 0 0
0 0 0 0 0 0 0 0 0 0 0 0 0 0 0 0 0 0 0 0 0 0 0 0 0 0 0 0 0 0 0 0 0 0 0 0 0 0 0 0 0 0 0
0 0 0 0 0 0 0 0 0 0 0 0 0 0 0 0 0 0 0 0 0 0 0 0 0 0 0 0 0 0 0 0 0 0 0 0 0 0 0 0 0 0 0
0 0 0 0 0 0 0 0 0 0 0 0 0 0 0 0 0 0 0 0 0 0 0 0 0 0 0 0 0 0 0 0 0 0 0 0 0 0 0 0 0 0 0
0 0 0 0 0 0 0 0 0 0 0 0 0 0 0 0 0 0 0 0 0 0 0 0 0 0 0 0 0 0 0 0 0 0 0 0 0 0 0 0 0 0 0
Height
5753 5748 5742 5737 5732 5726 5721 5717 5712 5708 5704 5701 5698 5696 5694 5693 5693 5694 5695 5698 5701 5704 5708 5712 5716 5721 5725 5729 5734 5739 5745 5751 5756 5762 5767 5772 5779 5785 5791 5798 5804 5810 5815
5746 5740 5735 5729 5723 5717 5712 5706 5701 5696 5692 5688 5684 5682 5680 5678 5678 5679 5681 5683 5686 5690 5694 5699 5703 5708 5713 5718 5723 5728 5734 5740 5746 5752 5757 5763 5770 5776 5783 5789 5796 5802 5808
5740 5734 5727 5721 5714 5708 5702 5696 5690 5685 5680 5675 5671 5668 5666 5664 5664 5665 5666 5669 5672 5676 5680 5685 5690 5695 5700 5706 5711 5717 5723 5729 5735 5742 5748 5754 5761 5767 5774 5780 5787 5793 5800
5733 5727 5720 5713 5706 5700 5693 5686 5680 5675 5669 5664 5659 5656 5653 5651 5650 5651 5652 5655 5658 5661 5665 5670 5675 5681 5687 5693 5699 5705 5712 5718 5725 5731 5738 5744 5751 5758 5765 5771 5778 5785 5791
5727 5720 5713 5706 5699 5691 5684 5678 5671 5665 5659 5654 5649 5645 5642 5640 5638 5638 5639 5641 5644 5647 5651 5656 5661 5667 5674 5680 5686 5693 5700 5707 5713 5720 5727 5734 5741 5748 5755 5762 5769 5776 5783
5722 5715 5707 5699 5692 5684 5677 5670 5663 5657 5651 5645 5640 5636 5632 5629 5627 5626 5627 5628 5631 5634 5638 5642 5648 5654 5660 5667 5674 5681 5688 5695 5702 5709 5717 5724 5731 5738 5745 5753 5760 5767 5775
5717 5709 5701 5693 5685 5678 5670 5663 5656 5649 5643 5638 5632 5628 5624 5621 5618 5617 5616 5617 5619 5622 5625 5630 5635 5640 5647 5654 5661 5668 5676 5683 5691 5698 5706 5713 5721 5728 5736 5743 5751 5758 5765
5712 5704 5696 5688 5680 5672 5665 5657 5650 5643 5637 5631 5626 5621 5617 5613 5610 5608 5606 5607 5609 5611 5614 5618 5623 5628 5634 5641 5649 5656 5664 5671 5679 5687 5695 5702 5709 5717 5725 5733 5741 5748 5755
5707 5699 5691 5683 5675 5667 5660 5652 5645 5638 5632 5626 5620 5615 5610 5606 5603 5600 5599 5598 5600 5602 5604 5608 5612 5617 5623 5629 5637 5644 5652 5659 5666 5674 5682 5690 5698 5706 5714 5722 5730 5737 5745
5703 5695 5687 5679 5671 5663 5655 5648 5641 5634 5627 5621 5615 5610 5605 5601 5597 5594 5592 5591 5592 5593 5596 5599 5603 5607 5612 5617 5625 5632 5639 5647 5655 5663 5671 5679 5687 5695 5703 5711 5719 5727 5734
5700 5692 5684 5676 5668 5660 5652 5644 5637 5630 5623 5617 5611 5606 5601 5596 5592 5589 5587 5585 5585 5586 5588 5590 5594 5598 5603 5608 5615 5622 5628 5635 5643 5651 5659 5667 5675 5683 5691 5700 5708 5716 5724
5697 5689 5681 5673 5665 5657 5649 5642 5634 5627 5621 5614 5609 5603 5598 5593 5589 5585 5582 5581 5580 5580 5581 5584 5586 5590 5595 5600 5606 5612 5619 5626 5633 5640 5648 5656 5664 5671 5679 5687 5696 5704 5712
5694 5687 5679 5671 5663 5655 5647 5640 5633 5626 5619 5613 5607 5601 5596 5590 5586 5582 5580 5577 5576 5576 5576 5578 5581 5584 5589 5594 5599 5605 5611 5617 5623 5630 5638 5645 5653 5660 5668 5676 5684 5692 5701
5692 5684 5677 5669 5661 5654 5646 5639 5632 5625 5618 5612 5606 5600 5595 5589 5585 5581 5578 5576 5574 5573 5573 5575 5577 5580 5584 5588 5593 5597 5603 5609 5614 5621 5627 5635 5642 5649 5657 5665 5673 5681 5689
5690 5682 5675 5668 5660 5653 5646 5639 5632 5625 5618 5612 5606 5600 5595 5590 5585 5581 5578 5576 5574 5573 5572 5573 5575 5577 5580 5583 5587 5591 5596 5601 5606 5612 5618 5625 5632 5639 5646 5654 5662 5670 5678
5688 5681 5674 5666 5659 5652 5645 5638 5631 5625 5618 5612 5606 5600 5595 5590 5585 5582 5578 5575 5573 5572 5572 5572 5573 5575 5577 5580 5583 5586 5590 5594 5598 5603 5609 5615 5622 5629 5636 5643 5651 5659 5667
5687 5680 5672 5665 5658 5652 5645 5638 5632 5625 5619 5612 5606 5601 5595 5590 5586 5582 5579 5576 5574 5572 5571 5571 5571 5572 5574 5576 5578 5581 5584 5588 5592 5596 5601 5607 5613 5619 5626 5633 5641 5648 5656
5685 5678 5671 5664 5658 5651 5645 5638 5632 5626 5620 5613 5607 5601 5596 5591 5587 5583 5580 5577 5574 5572 5571 5570 5570 5570 5571 5573 5574 5576 5579 5582 5585 5589 5593 5598 5604 5610 5616 5623 5630 5638 5645
5683 5676 5670 5663 5657 5650 5644 5638 5632 5626 5620 5614 5608 5602 5597 5592 5588 5584 5580 5577 5575 5573 5571 5570 5569 5569 5569 5570 5571 5572 5574 5576 5579 5582 5586 5591 5596 5601 5607 5614 5620 5627 5635
5681 5674 5668 5662 5655 5649 5644 5638 5632 5626 5620 5614 5609 5603 5598 5593 5588 5584 5581 5578 5575 5573 5571 5569 5569 5568 5567 5567 5567 5568 5570 5571 5573 5576 5580 5584 5589 5594 5599 5605 5611 5618 5625
5678 5672 5666 5660 5654 5648 5642 5637 5631 5625 5620 5615 5609 5604 5598 5593 5589 5585 5581 5578 5575 5573 5571 5569 5568 5567 5566 5565 5565 5565 5566 5567 5569 5571 5574 5577 5582 5587 5592 5597 5603 5609 5615
5675 5669 5663 5657 5652 5646 5641 5636 5630 5625 5619 5614 5609 5604 5599 5594 5590 5585 5582 5578 5576 5573 5571 5569 5567 5566 5565 5564 5563 5563 5564 5564 5565 5567 5570 5573 5577 5581 5586 5591 5596 5602 5608
5671 5666 5660 5655 5649 5644 5639 5634 5629 5624 5618 5614 5609 5604 5599 5595 5590 5586 5582 5579 5576 5574 5571 5569 5567 5566 5564 5563 5562 5562 5562 5562 5563 5564 5566 5569 5573 5576 5580 5585 5589 5595 5601
5667 5662 5657 5652 5647 5642 5637 5632 5627 5622 5618 5613 5609 5604 5600 5595 5591 5587 5583 5580 5576 5574 5572 5570 5568 5566 5565 5563 5562 5561 5561 5561 5562 5563 5564 5567 5569 5572 5576 5580 5584 5589 5595
5662 5658 5653 5648 5644 5639 5635 5630 5626 5621 5617 5612 5608 5604 5600 5595 5591 5587 5584 5580 5577 5575 5572 5570 5568 5566 5565 5564 5563 5562 5561 5561 5561 5562 5564 5565 5567 5570 5573 5576 5580 5585 5590
5657 5653 5649 5644 5640 5636 5632 5628 5623 5619 5615 5611 5607 5603 5599 5596 5592 5588 5585 5582 5579 5576 5574 5571 5570 5568 5566 5565 5564 5563 5563 5563 5563 5563 5564 5565 5566 5568 5571 5574 5578 5582 5586
Wind_Speed
32 33 33 34 35 35 35 35 35 36 36 37 38 38 39 40 41 41 43 44 44 44 45 45 43 42 42 43 43 43 42 41 41 41 41 42 43 43 43 42 41 40 38
33 34 34 35 35 35 35 36 36 36 37 37 37 37 38 38 39 39 40 42 43 44 45 45 45 44 44 43 43 43 44 43 42 42 43 43 43 43 44 43 42 40 39
34 34 35 36 36 36 36 36 36 36 36 36 36 36 36 36 37 38 39 40 42 43 45 46 46 46 45 45 45 45 44 44 44 44 44 44 45 45 45 44 43 42 40
34 35 36 36 36 37 36 36 35 35 34 34 33 33 32 33 35 36 38 39 41 42 44 45 46 46 46 46 47 47 47 46 46 45 45 46 46 47 46 45 45 44 43
35 36 37 37 37 37 36 35 35 34 33 32 30 30 30 30 31 33 34 37 38 40 42 43 45 46 47 48 48 49 50 49 48 48 47 48 48 48 48 46 46 45 45
36 37 37 37 37 36 35 34 33 32 31 30 29 28 27 27 28 30 31 34 36 38 40 42 45 46 47 49 49 50 51 50 51 50 49 47 49 48 48 48 48 47 45
37 37 38 37 36 35 34 33 32 31 30 29 27 26 25 25 25 26 28 30 32 35 38 41 44 46 47 48 49 50 51 51 52 52 52 50 50 50 49 49 48 48 47
37 38 38 37 36 35 34 33 32 30 29 28 26 25 25 24 23 23 24 26 28 31 34 37 41 43 47 49 49 50 50 52 52 53 54 53 53 53 52 50 50 50 50
37 38 37 36 36 35 34 33 31 30 28 27 25 24 23 22 21 20 20 22 25 27 30 33 36 40 43 47 48 49 50 52 53 53 54 55 55 54 54 53 52 51 50
37 37 37 36 36 35 34 32 31 30 29 26 25 23 22 21 20 19 19 19 21 24 27 30 33 36 40 43 45 47 49 50 52 53 54 55 56 55 56 55 54 52 51
37 37 36 36 36 35 34 32 31 30 28 26 24 23 21 20 19 17 16 16 17 20 23 26 29 32 34 38 41 43 46 48 50 52 54 54 54 55 56 56 55 54 53
36 36 36 36 35 34 33 32 31 30 28 25 24 23 21 20 19 16 14 13 14 16 19 23 26 28 30 33 36 39 42 45 48 49 51 52 53 53 54 56 56 54 54
36 36 35 35 35 34 33 32 31 30 28 26 24 23 21 19 17 16 13 11 10 11 13 17 21 24 26 29 32 35 38 42 44 47 49 51 52 53 53 54 55 55 54
36 35 35 34 34 34 33 32 31 29 28 26 24 23 21 19 17 15 13 11 8 7 9 12 16 19 22 26 28 31 34 38 41 43 46 48 50 51 51 52 54 54 54
36 35 34 33 33 32 32 32 31 30 29 27 25 23 21 19 17 15 13 11 8 6 6 8 12 15 19 22 24 27 29 33 37 40 43 46 47 49 50 51 52 53 53
36 35 34 33 32 32 31 31 31 30 29 27 25 23 21 19 17 15 13 11 8 6 6 6 9 12 16 19 21 23 26 28 32 36 39 43 45 46 47 48 50 50 51
36 35 34 33 31 31 30 30 30 30 29 27 26 24 22 20 18 16 14 12 9 6 5 5 7 9 12 15 18 21 24 26 29 31 35 38 41 44 45 46 48 49 50
35 35 33 32 31 30 30 29 29 28 28 27 26 24 22 20 18 16 14 12 10 7 5 5 5 7 9 12 15 18 21 24 26 29 32 35 37 40 42 44 46 47 49
35 34 33 32 31 30 29 29 29 28 27 26 26 24 23 20 18 16 15 13 11 9 7 4 4 5 7 10 12 15 18 21 24 27 29 31 34 36 39 41 43 45 47
34 33 32 32 31 30 29 28 28 27 26 25 25 24 23 21 19 16 15 13 12 9 7 5 5 4 5 7 9 12 15 18 21 24 27 29 32 33 35 38 40 42 44
33 33 32 31 31 29 28 28 27 26 25 25 24 24 23 21 20 17 15 13 12 9 7 6 5 4 4 5 6 8 11 13 16 19 23 25 28 31 32 35 36 38 40
34 33 31 30 30 29 27 26 26 26 25 24 24 23 22 21 20 18 15 13 11 10 8 7 6 5 4 3 3 4 6 8 11 14 18 21 24 26 28 31 34 36 37
33 32 31 30 29 28 27 25 25 25 24 23 23 23 21 20 19 18 16 14 12 10 9 8 7 6 5 4 3 3 4 6 7 10 13 16 19 22 25 27 30 33 35
32 31 30 29 28 27 26 25 24 23 22 21 21 22 21 20 18 17 15 14 13 11 10 8 7 6 5 5 4 2 1 3 5 7 10 13 15 18 21 24 27 30 32
32 30 30 29 27 26 25 23 23 22 21 20 19 20 19 19 17 16 15 14 13 12 10 9 8 7 6 5 5 3 1 1 2 5 6 8 12 15 17 20 23 26 29
31 30 29 28 27 26 24 23 22 21 21 20 19 18 17 17 17 15 14 13 12 11 10 9 8 7 6 5 5 4 3 2 2 3 4 5 8 11 14 16 19 22 25
Wind_Direction
323 321 318 316 314 312 309 305 302 298 296 291 286 282 277 272 267 263 259 255 252 249 247 245 244 242 239 236 234 232 230 228 226 224 222 220 218 216 216 215 216 216 216
327 325 322 321 318 316 313 310 306 303 299 294 288 284 279 273 267 263 258 254 251 248 246 243 242 241 239 236 233 230 229 228 224 223 221 219 218 216 215 214 214 215 216
330 329 327 324 322 319 317 314 310 307 303 298 293 288 281 274 267 262 258 254 250 247 245 243 241 239 237 235 233 230 229 226 223 222 220 219 217 216 215 214 214 215 216
333 332 330 328 326 323 320 318 315 312 308 303 298 292 285 279 272 265 259 254 250 247 244 241 238 236 235 233 231 228 226 225 224 222 220 219 217 216 216 215 215 217 217
336 335 333 332 329 327 325 322 319 316 313 309 304 298 290 283 276 269 262 255 250 246 243 240 237 235 233 231 231 229 226 225 224 223 221 219 217 217 216 215 216 216 218
339 338 336 335 333 331 329 326 324 320 317 314 310 304 297 290 281 273 265 257 251 246 243 239 236 234 233 231 230 229 227 226 223 222 220 219 217 217 216 216 216 216 217
341 341 340 339 337 335 333 331 329 325 322 318 314 310 304 297 288 278 267 259 252 247 243 240 238 235 232 230 229 228 227 226 223 223 221 220 217 217 217 217 216 216 217
343 343 343 342 341 338 336 334 333 330 326 323 319 314 310 305 296 285 272 261 254 249 244 241 238 235 232 230 228 227 228 227 224 223 222 221 219 217 216 218 218 217 218
345 345 345 344 343 342 340 338 337 335 331 328 324 320 316 310 304 293 281 267 257 250 245 241 237 234 232 231 229 228 228 227 225 224 222 221 221 219 217 217 218 219 220
347 347 347 346 345 345 344 342 340 338 336 333 329 327 323 317 311 301 287 275 262 252 245 241 237 235 232 231 230 229 228 228 226 226 223 222 222 222 220 219 220 219 220
349 348 348 348 348 347 347 346 345 343 342 340 337 334 331 327 321 312 299 282 266 254 246 241 237 234 232 230 229 229 229 229 227 226 225 224 225 225 223 221 222 222 222
350 350 350 350 351 350 350 349 349 348 348 347 344 341 338 335 331 324 314 296 275 259 248 241 237 234 232 230 228 228 228 228 228 227 225 224 225 226 226 225 224 224 223
350 351 351 352 353 353 353 353 353 353 353 352 351 349 345 342 340 336 329 317 292 266 249 239 232 230 229 227 227 228 228 228 228 228 227 226 226 226 226 227 227 226 226
351 351 352 353 354 355 356 356 356 356 356 356 355 355 353 352 348 343 338 332 316 282 254 238 230 225 226 226 227 229 229 228 228 228 228 227 227 227 227 227 228 227 228
351 351 352 353 354 356 357 358 358 359 359 359 358 358 357 356 356 353 347 340 328 304 270 247 234 228 225 224 226 227 228 228 228 228 228 227 227 227 227 227 228 228 229
351 351 352 353 354 355 357 358 359 0 1 2 2 1 1 360 358 357 354 348 337 318 288 256 239 232 228 226 226 225 226 227 228 229 228 227 227 228 228 228 227 227 228
350 351 352 353 353 354 356 357 359 360 1 2 3 2 3 3 3 1 359 355 348 335 315 278 254 240 231 230 231 229 228 228 227 227 228 228 227 227 227 226 226 226 226
349 351 351 352 352 352 353 355 357 358 360 1 2 3 2 3 4 4 3 2 359 348 328 304 275 252 241 237 234 232 230 229 228 227 227 227 228 227 226 226 226 225 225
348 349 350 351 351 351 352 353 354 356 358 0 2 3 3 1 360 0 2 0 359 357 348 331 300 270 253 245 238 235 233 232 230 228 226 226 226 227 227 226 225 224 224
345 347 348 349 350 350 350 351 353 355 357 359 0 2 3 3 1 1 1 2 1 359 355 345 330 308 277 256 245 240 236 234 231 227 225 224 224 225 225 224 223 224 223
342 343 344 346 347 347 347 348 351 353 354 355 357 359 2 2 2 2 1 2 1 0 358 353 341 325 309 286 259 243 235 232 228 225 224 223 222 222 223 223 221 221 221
338 339 340 342 343 344 345 346 347 350 352 353 354 356 360 2 2 3 2 3 5 7 4 359 351 342 332 311 281 250 237 231 226 224 222 220 218 219 220 222 222 220 220
336 336 337 339 340 342 343 343 344 347 350 352 353 354 357 0 3 5 6 7 6 5 7 11 11 8 3 358 331 272 244 230 223 218 215 215 216 217 218 219 220 218 217
334 334 335 336 338 340 341 341 343 345 348 350 351 353 355 357 0 4 6 8 9 10 11 12 9 9 12 12 15 13 252 231 225 216 212 213 215 216 216 215 215 214 215
330 330 331 333 334 336 338 338 339 342 344 345 348 351 354 355 357 1 5 6 8 10 14 16 15 15 21 27 31 40 72 133 200 204 205 209 212 212 211 210 211 210 211
325 326 327 329 330 332 333 333 334 337 340 341 343 346 350 353 356 359 4 8 9 12 16 20 23 27 32 37 40 49 70 94 128 168 181 189 196 201 204 204 204 205 206